This demonstration page uses our WeatherBlox Daily Observations layout. Learn more.

Left ArrowRight Arrow

Hourly Observations for December 31, 2021

Temp ( °F °C ) Dew Point ( °F °C ) Humidity (%) Winds ( mph kmh ) Pressure ( in mb ) Visibility ( mi km ) Precip ( " mm )
12:15 am 00:15 Clear 21 -6.1 15 -9.2 79 79 NE 6 9 29.65 1004 10 16 0.00 0.00
12:35 am 00:35 Clear 20 -6.5 15 -9.7 78 78 ENE 7 11 29.65 1004 10 16 0.00 0.00
12:55 am 00:55 Clear 21 -6 16 -8.9 80 80 ENE 7 11 29.63 1003 10 16 0.00 0.00
1:15 am 01:15 Clear 21 -6 16 -8.8 81 81 NE 5 7 29.63 1003 10 16 0.00 0.00
1:35 am 01:35 Clear 20 -6.8 16 -9.1 84 84 NNE 5 7 29.64 1004 10 16 0.00 0.00
1:55 am 01:55 Clear 18 -7.8 13 -10.4 82 82 Calm 29.65 1004 10 16 0.00 0.00
2:15 am 02:15 Clear 18 -7.7 14 -9.8 85 85 Calm 29.65 1004 10 16 0.00 0.00
2:35 am 02:35 Clear 17 -8.2 14 -10.2 86 86 Calm 29.65 1004 10 16 0.00 0.00
2:55 am 02:55 Clear 17 -8.4 13 -10.5 85 85 Calm 29.65 1004 10 16 0.00 0.00
3:15 am 03:15 Clear 16 -9 12 -11.2 84 84 Calm 29.66 1004 10 16 0.00 0.00
3:35 am 03:35 Clear 17 -8.5 14 -10.1 88 88 Calm 29.65 1004 10 16 0.00 0.00
3:55 am 03:55 Clear 16 -9.1 13 -10.7 88 88 Calm 29.65 1004 10 16 0.00 0.00
4:15 am 04:15 Clear 16 -8.8 13 -10.5 88 88 W 3 6 29.64 1004 10 16 0.00 0.00
4:35 am 04:35 Clear 17 -8.5 14 -10 89 89 Calm 29.64 1004 10 16 0.00 0.00
4:55 am 04:55 Clear 16 -8.8 14 -10.2 90 90 Calm 29.64 1004 10 16 0.00 0.00
5:15 am 05:15 Clear 16 -9 13 -10.5 89 89 NW 7 11 29.63 1003 10 16 0.00 0.00
5:35 am 05:35 Clear 15 -9.4 12 -10.9 89 89 NNW 7 11 29.64 1004 10 16 0.00 0.00
5:55 am 05:55 Clear 18 -7.7 16 -9.1 90 90 NNW 9 15 29.65 1004 10 16 0.00 0.00
6:15 am 06:15 Clear 19 -7 16 -9 86 86 NNW 9 15 29.66 1004 10 16 0.00 0.00
6:35 am 06:35 Clear 19 -7.1 16 -9 86 86 NNW 6 9 29.66 1004 10 16 0.00 0.00
6:55 am 06:55 Clear 19 -7.5 15 -9.2 88 88 NNW 7 11 29.67 1005 10 16 0.00 0.00
7:15 am 07:15 Clear 19 -7.5 15 -9.2 88 88 N 8 13 29.66 1004 10 16 0.00 0.00
7:35 am 07:35 Clear 17 -8.6 14 -10.2 88 88 N 8 13 29.69 1005 10 16 0.00 0.00
7:55 am 07:55 Clear 19 -7.5 15 -9.2 88 88 N 9 15 29.67 1005 10 16 0.00 0.00
8:15 am 08:15 Sunny 19 -7.5 15 -9.2 88 88 N 10 17 29.69 1005 10 16 0.00 0.00
8:35 am 08:35 Sunny 19 -7.5 15 -9.5 86 86 N 17 28 29.70 1006 10 16 0.00 0.00
8:55 am 08:55 Sunny 18 -7.8 14 -10 84 84 N 20 31 29.72 1006 10 16 0.00 0.00
9:15 am 09:15 Sunny 19 -7.5 14 -9.8 84 84 N 16 26 29.75 1007 10 16 0.00 0.00
9:35 am 09:35 Sunny 19 -7.2 15 -9.7 83 83 N 21 33 29.74 1007 10 16 0.00 0.00
9:55 am 09:55 Sunny 20 -6.8 15 -9.5 81 81 N 18 30 29.76 1008 10 16 0.00 0.00
10:15 am 10:15 Sunny 20 -6.5 15 -9.6 79 79 NNE 17 28 29.76 1008 10 16 0.00 0.00
10:35 am 10:35 Sunny 20 -6.4 14 -9.9 76 76 N 18 30 29.78 1008 10 16 0.00 0.00
10:55 am 10:55 Sunny 21 -6 14 -10 74 74 N 18 30 29.78 1009 10 16 0.00 0.00
11:15 am 11:15 Sunny 22 -5.7 14 -10.1 71 71 N 21 33 29.80 1009 10 16 0.00 0.00
11:35 am 11:35 Sunny 23 -5.1 14 -9.9 69 69 N 18 30 29.81 1010 10 16 0.00 0.00
11:55 am 11:55 Sunny 23 -5 14 -10.1 68 68 N 22 35 29.80 1009 10 16 0.00 0.00
12:15 pm 12:15 Mostly Cloudy 22 -5.5 14 -10.2 70 70 N 22 35 29.80 1009 10 16 0.00 0.00
12:35 pm 12:35 Cloudy 22 -5.3 13 -10.3 68 68 N 20 31 29.80 1009 10 16 0.00 0.00
12:55 pm 12:55 Cloudy 22 -5.5 13 -10.5 68 68 N 22 35 29.80 1009 10 16 0.00 0.00
1:15 pm 13:15 Cloudy 23 -5.2 14 -10.2 68 68 N 21 33 29.78 1009 10 16 0.00 0.00
1:35 pm 13:35 Cloudy 23 -5.2 14 -10.1 69 69 NNE 18 30 29.79 1009 10 16 0.00 0.00
1:55 pm 13:55 Cloudy 23 -5 14 -10.1 68 68 NNE 24 39 29.80 1009 10 16 0.00 0.00
2:15 pm 14:15 Cloudy 24 -4.6 14 -10 66 66 N 18 30 29.81 1009 10 16 0.00 0.00
2:35 pm 14:35 Cloudy 24 -4.7 14 -9.8 68 68 NNE 17 28 29.81 1009 10 16 0.00 0.00
2:55 pm 14:55 Cloudy 24 -4.5 15 -9.7 67 67 N 18 30 29.83 1010 10 16 0.00 0.00
3:15 pm 15:15 Cloudy 24 -4.5 15 -9.6 68 68 N 22 35 29.82 1010 10 16 0.00 0.00
3:35 pm 15:35 Cloudy 23 -4.8 14 -9.8 68 68 NNE 22 35 29.83 1010 10 16 0.00 0.00
3:55 pm 15:55 Cloudy 23 -5.1 13 -10.3 67 67 NNE 24 39 29.83 1010 10 16 0.00 0.00
4:15 pm 16:15 Cloudy 23 -5.2 13 -10.5 67 67 NNE 20 31 29.85 1011 10 16 0.00 0.00
4:35 pm 16:35 Cloudy 22 -5.5 12 -10.9 66 66 N 24 39 29.87 1011 10 16 0.00 0.00
4:55 pm 16:55 Cloudy 21 -6.3 11 -11.5 67 67 N 24 39 29.90 1012 10 16 0.00 0.00
5:15 pm 17:15 Cloudy 19 -7.5 10 -12.3 69 69 NNE 20 31 29.93 1013 10 16 0.00 0.00
5:35 pm 17:35 Cloudy 18 -8 9 -12.7 69 69 NNE 24 39 29.94 1014 10 16 0.00 0.00
5:55 pm 17:55 Cloudy 17 -8.2 9 -12.8 70 70 NNE 20 31 29.95 1014 10 16 0.00 0.00
6:15 pm 18:15 Cloudy 16 -8.8 8 -13.1 71 71 NNE 23 37 29.97 1015 10 16 0.00 0.00
6:35 pm 18:35 Cloudy 15 -9.5 8 -13.3 74 74 N 21 33 30.00 1016 10 16 0.00 0.00
6:55 pm 18:55 Cloudy 13 -10.5 7 -14.1 75 75 NNE 21 33 30.02 1017 10 16 0.00 0.00
7:15 pm 19:15 Windy with Snow Likely 12 -11 7 -14 79 79 NNE 24 39 30.03 1017 7 11 0.00 0.00
7:35 pm 19:35 Cloudy with Light Snow 12 -11.1 8 -13.6 82 82 NNE 18 30 30.06 1018 5 8 0.00 0.00
7:55 pm 19:55 Cloudy with Light Snow 12 -11.1 8 -13.5 83 83 N 17 28 30.07 1018 4 6 0.00 0.00
8:15 pm 20:15 Windy with Snow Likely 11 -11.5 8 -13.5 85 85 N 23 37 30.07 1018 3 5 0.00 0.00
8:35 pm 20:35 Cloudy with Light Snow 11 -11.6 8 -13.5 86 86 N 16 26 30.07 1018 4 6 0.00 0.00
8:55 pm 20:55 Windy with Snow Likely 10 -12 7 -13.7 87 87 NNE 26 43 30.06 1018 5 8 0.00 0.00
9:15 pm 21:15 Windy with Snow Likely 10 -12.5 6 -14.2 87 87 N 20 31 30.06 1018 5 8 0.00 0.00
9:35 pm 21:35 Cloudy 8 -13.1 5 -14.9 87 87 N 25 41 30.08 1018 7 11 0.00 0.00
9:55 pm 21:55 Cloudy 8 -13.5 5 -15.2 87 87 NNE 25 41 30.09 1019 7 11 0.00 0.00
10:15 pm 22:15 Cloudy 8 -13.3 5 -15.1 86 86 NNE 23 37 30.09 1019 7 11 0.00 0.00
10:35 pm 22:35 Cloudy 8 -13.5 4 -15.3 86 86 NNE 24 39 30.10 1019 7 11 0.00 0.00
10:55 pm 22:55 Cloudy 8 -13.6 4 -15.6 85 85 N 26 43 30.11 1020 7 11 0.00 0.00
11:15 pm 23:15 Cloudy 7 -13.7 3 -15.9 84 84 N 23 37 30.10 1019 7 11 0.00 0.00
11:35 pm 23:35 Cloudy 6 -14.2 2 -16.5 83 83 N 25 41 30.12 1020 7 11 0.00 0.00
11:55 pm 23:55 Cloudy 6 -14.3 2 -16.7 82 82 N 26 43 30.13 1020 10 16 0.00 0.00

Powered by AerisWeather